TimeAEST,TemperatureF,Dew PointF,Humidity,Sea Level PressureIn,VisibilityMPH,Wind Direction,Wind SpeedMPH,Gust SpeedMPH,PrecipitationIn,Events,Conditions,WindDirDegrees,DateUTC
12:00 AM,78,73,79,29.89,,South,10.4,,,,,180,2013-03-26 14:00:00
12:00 AM,78.8,73.4,83,29.89,6.2,South,10.4,-,N/A,,Mostly Cloudy,180,2013-03-26 14:00:00
12:30 AM,78.8,73.4,83,29.86,6.2,South,10.4,-,N/A,,Mostly Cloudy,180,2013-03-26 14:30:00
1:00 AM,78,73,79,29.88,,SSE,9.2,,,,,160,2013-03-26 15:00:00
1:00 AM,78.8,73.4,83,29.86,6.2,SSE,9.2,-,N/A,,Mostly Cloudy,160,2013-03-26 15:00:00
1:30 AM,78.8,73.4,83,29.86,6.2,South,8.1,-,N/A,,Mostly Cloudy,180,2013-03-26 15:30:00
2:00 AM,77.0,73.4,89,29.86,6.2,South,8.1,-,N/A,,Mostly Cloudy,170,2013-03-26 16:00:00
2:30 AM,78.8,73.4,83,29.83,6.2,SSE,9.2,-,N/A,,Mostly Cloudy,160,2013-03-26 16:30:00
3:00 AM,78,73,79,29.84,,South,8.1,,,,,170,2013-03-26 17:00:00
3:00 AM,77.0,73.4,89,29.83,6.2,South,8.1,-,N/A,,Mostly Cloudy,170,2013-03-26 17:00:00
3:30 AM,77.0,73.4,89,29.83,6.2,SSE,8.1,-,N/A,,Mostly Cloudy,150,2013-03-26 17:30:00
4:00 AM,77,74,87,29.86,,SE,8.1,,,,,140,2013-03-26 18:00:00
4:00 AM,77.0,73.4,89,29.83,6.2,SE,8.1,-,N/A,,Mostly Cloudy,140,2013-03-26 18:00:00
5:00 AM,77.0,73.4,89,29.83,6.2,South,12.7,-,N/A,,Mostly Cloudy,190,2013-03-26 19:00:00
5:30 AM,77.0,73.4,89,29.86,6.2,South,10.4,-,N/A,Rain,Light Rain Showers,180,2013-03-26 19:30:00
6:00 AM,76,73,87,29.87,9,South,11.5,,,Rain,Light Rain Showers,180,2013-03-26 20:00:00
6:00 AM,77.0,73.4,89,29.86,6.2,South,11.5,-,N/A,,Mostly Cloudy,180,2013-03-26 20:00:00
6:30 AM,75.2,73.4,94,29.86,5.6,South,12.7,-,N/A,Rain,Light Rain Showers,180,2013-03-26 20:30:00
7:00 AM,75,73,92,29.90,,South,12.7,,,,,180,2013-03-26 21:00:00
7:00 AM,75.2,73.4,94,29.89,3.1,South,12.7,-,N/A,Rain,Light Rain Showers,180,2013-03-26 21:00:00
7:30 AM,75.2,73.4,94,29.89,3.7,SSE,8.1,-,N/A,Rain,Light Rain Showers,150,2013-03-26 21:30:00
8:00 AM,75.2,73.4,94,29.89,3.7,South,10.4,-,N/A,Rain,Light Rain Showers,170,2013-03-26 22:00:00
8:30 AM,77.0,73.4,89,29.92,5.6,South,9.2,-,N/A,,Mostly Cloudy,180,2013-03-26 22:30:00
9:00 AM,79,74,79,29.92,16,South,9.2,,,Rain,Light Rain Showers,180,2013-03-26 23:00:00
9:00 AM,78.8,73.4,83,29.92,6.2,South,9.2,-,N/A,,Scattered Clouds,180,2013-03-26 23:00:00
9:30 AM,80.6,73.4,79,29.92,6.2,South,9.2,-,N/A,,Mostly Cloudy,190,2013-03-26 23:30:00
10:00 AM,82,73,68,29.92,,South,9.2,,,,,170,2013-03-27 00:00:00
10:00 AM,82.4,73.4,74,29.92,6.2,South,9.2,-,N/A,,Mostly Cloudy,170,2013-03-27 00:00:00
10:30 AM,84.2,73.4,70,29.92,6.2,SE,12.7,-,N/A,,Mostly Cloudy,130,2013-03-27 00:30:00
11:00 AM,86.0,71.6,62,29.89,6.2,SE,17.3,-,N/A,,Mostly Cloudy,130,2013-03-27 01:00:00
11:30 AM,86.0,69.8,58,29.89,6.2,SE,18.4,-,N/A,,Mostly Cloudy,130,2013-03-27 01:30:00
12:00 PM,86,71,52,29.88,19,SE,16.1,,,,Partly Cloudy,130,2013-03-27 02:00:00
12:00 PM,86.0,71.6,62,29.89,6.2,SE,16.1,-,N/A,,Mostly Cloudy,130,2013-03-27 02:00:00
12:30 PM,86.0,71.6,62,29.86,6.2,SE,18.4,-,N/A,,Mostly Cloudy,130,2013-03-27 02:30:00
1:00 PM,86,71,52,29.86,,SE,15.0,,,,,140,2013-03-27 03:00:00
1:00 PM,86.0,71.6,62,29.86,6.2,SE,15.0,-,N/A,,Mostly Cloudy,140,2013-03-27 03:00:00
1:30 PM,84.2,71.6,66,29.83,6.2,East,13.8,-,N/A,,Mostly Cloudy,90,2013-03-27 03:30:00
2:00 PM,84.2,71.6,66,29.83,6.2,SSE,20.7,-,N/A,,Mostly Cloudy,150,2013-03-27 04:00:00
2:30 PM,82.4,71.6,70,29.83,6.2,SE,16.1,-,N/A,,Mostly Cloudy,140,2013-03-27 04:30:00
3:00 PM,82,71,60,29.84,16,South,9.2,,,,Partly Cloudy,170,2013-03-27 05:00:00
3:00 PM,82.4,69.8,66,29.83,6.2,South,9.2,-,N/A,,Mostly Cloudy,170,2013-03-27 05:00:00
3:30 PM,82.4,71.6,70,29.83,6.2,South,9.2,-,N/A,,Mostly Cloudy,170,2013-03-27 05:30:00
3:55 PM,80.6,73.4,79,29.83,3.7,SSE,17.3,-,N/A,Rain,Light Rain Showers,150,2013-03-27 05:55:00
4:00 PM,77,74,90,29.85,,SE,19.6,,,,,140,2013-03-27 06:00:00
4:00 PM,77.0,75.2,94,29.83,3.7,SE,19.6,-,N/A,Rain,Light Rain Showers,140,2013-03-27 06:00:00
4:15 PM,78.8,75.2,89,29.83,6.2,South,5.8,-,N/A,,Mostly Cloudy,170,2013-03-27 06:15:00
4:17 PM,78.8,75.2,89,29.83,6.2,South,5.8,-,N/A,Rain,Light Rain Showers,170,2013-03-27 06:17:00
4:30 PM,78.8,73.4,83,29.83,6.2,SSE,10.4,-,N/A,,Mostly Cloudy,160,2013-03-27 06:30:00
4:46 PM,77.0,73.4,89,29.86,3.1,SE,15.0,-,N/A,Rain,Light Rain Showers,130,2013-03-27 06:46:00
5:00 PM,75.2,73.4,94,29.86,2.5,SE,15.0,-,N/A,Rain,Rain Showers,140,2013-03-27 07:00:00
5:30 PM,75.2,73.4,94,29.86,3.1,South,8.1,-,N/A,Rain,Light Rain Showers,180,2013-03-27 07:30:00
6:00 PM,74,72,91,29.88,5,South,10.4,,,Rain,Light Rain Showers,180,2013-03-27 08:00:00
6:00 PM,73.4,71.6,94,29.89,5.0,South,10.4,-,N/A,Rain,Light Rain Showers,180,2013-03-27 08:00:00
6:25 PM,73.4,71.6,94,29.89,3.1,South,11.5,-,N/A,Rain,Light Rain Showers,180,2013-03-27 08:25:00
6:30 PM,75.2,71.6,89,29.89,3.1,SW,5.8,-,N/A,Rain,Light Rain Showers,220,2013-03-27 08:30:00
7:00 PM,74,70,85,29.91,,South,8.1,,,,,170,2013-03-27 09:00:00
7:00 PM,73.4,69.8,88,29.89,6.2,South,8.1,-,N/A,,Mostly Cloudy,170,2013-03-27 09:00:00
7:30 PM,73.4,71.6,94,29.92,3.7,South,12.7,-,N/A,Rain,Light Rain Showers,170,2013-03-27 09:30:00
8:00 PM,75.2,66.2,73,29.92,5.0,South,9.2,-,N/A,Rain,Light Rain Showers,190,2013-03-27 10:00:00
8:30 PM,73.4,68.0,83,29.92,6.2,SSE,11.5,-,N/A,,Mostly Cloudy,160,2013-03-27 10:30:00
9:00 PM,74,70,83,29.94,7,SSE,12.7,,,,Overcast,160,2013-03-27 11:00:00
9:00 PM,73.4,69.8,88,29.92,6.2,SSE,12.7,-,N/A,,Mostly Cloudy,160,2013-03-27 11:00:00
9:17 PM,71.6,71.6,100,29.95,3.7,South,12.7,-,N/A,Rain,Light Rain Showers,170,2013-03-27 11:17:00
9:30 PM,73.4,69.8,88,29.92,6.2,South,13.8,-,N/A,Rain,Light Rain Showers,190,2013-03-27 11:30:00
10:00 PM,76,68,70,29.94,,South,13.8,,,,,190,2013-03-27 12:00:00
10:00 PM,75.2,68.0,78,29.92,6.2,South,13.8,-,N/A,,Mostly Cloudy,190,2013-03-27 12:00:00
10:10 PM,75.2,69.8,83,29.95,3.1,SSE,15.0,-,N/A,Rain,Rain Showers,150,2013-03-27 12:10:00
10:30 PM,73.4,69.8,88,29.95,3.7,South,12.7,-,N/A,Rain,Light Rain Showers,170,2013-03-27 12:30:00
11:00 PM,75.2,69.8,83,29.92,6.2,South,12.7,-,N/A,,Mostly Cloudy,190,2013-03-27 13:00:00
11:30 PM,73.4,71.6,94,29.92,6.2,SSE,12.7,-,N/A,,Mostly Cloudy,150,2013-03-27 13:30:00